User: anonymous   Login
Location: Arrakis Observatory
(44.1122°N, 95.7153°W)
Time: 08:15:35
(UTC-05:00)
Language:

Coronas F rocket - Orbit

View from above orbital plane
View from above orbital plane
View from above satellite
View from above satellite

Ground track
Ground track

The orbit data is extracted from the following two-line orbital elements,

1 26874U 01032B   16238.16794736  .00025635  00000-0  11318-3 0  9994
2 26874  82.4585 206.1290 0003173 309.8413  50.2577 15.84303369846559
Epoch (UTC): 25 August 2016 04:01:50
Eccentricity: 0.0003173
inclination: 82.4585°
perigee height: 316 km
apogee height: 320 km
right ascension of ascending node: 206.1290°
argument of perigee: 309.8413°
revolutions per day: 15.84303369
mean anomaly at epoch: 50.2577°
orbit number at epoch: 84655

The dashed part of the orbit path shows where the satellite is in the earth's shadow,  

DLR